{"data":{"norad_id":65046,"intl_designator":"2025-162D","name":"HULIANWANG DIGUI-43","alt_names":[],"object_type":"PAYLOAD","status":"ACTIVE","operator":null,"country":"PRC","launch_date":"2025-07-30","launch_site_code":"WSC","launch_vehicle":null,"mission":null,"orbit_class":"UNKNOWN","rcs_meters":null,"size_class":null,"mass_kg":null,"dimensions":null,"purposes":[],"wikipedia_slug":null,"has_3d_model":false,"image_url":null,"decayed_at":null,"tle_current":{"epoch":"2026-09-21T17:55:03.090720Z","epoch_age_seconds":60544,"freshness":"FRESH","line1":"1 65046U 25162D   26264.74656355 -.00000086  00000+0  82440-4 0  9994","line2":"2 65046  49.9983 279.3517 0000694 287.3856  72.6940 13.29326526 56207","mean_motion":13.29326526,"eccentricity":6.94e-5,"inclination_deg":49.9983,"raan_deg":279.3517,"arg_perigee_deg":287.3856,"mean_anomaly_deg":72.694,"bstar":8.244e-5,"rev_number":5620,"period_min":108.32552964493,"perigee_km":1148.7821817227,"apogee_km":1149.8269906149,"semimajor_km":7527.4415861688,"source":"CELESTRAK","updated_at":"2026-09-22T09:00:30.090710Z"}}}